Showing default

IRIDIUM 169, 43926

Orbit data source: Space-Track

IRIDIUM 169, 43926 is a payload satellite owned by Iridium (US) in LEO that was launched on Fri, 11 Jan 2019 UTC via an FALCON 9 launch vehicle from the Air Force Western Test Range (AFWTR). Payload-class satellites include a variety of spacecraft equipped with specific instruments for various scientific and technological missions. These include communications satellites like Starlink; space stations such as the ISS; scientific satellites like the Hubble; Earth observation satellites from companies like Planet Labs, Umbra, and HawkEye 360; GPS; miniature CubeSats for education and research; and military/defense satellites.

Loading next visibility...
Identifier
43926, 2019-002E
Orbit
LEO
Country
Flag of USUS
Related business
Manufacturer
NGIS SSG Gilbert
Mission
Operational Commercial Communications
Bus & Motor
ELITEBUS, Unknown motor
Mass
860 kg wet, 700 kg dry
Launch date (UTC)
2019-01-11 (7 years ago)
Launch vehicle
FALCON 9
Launch site
Air Force Western Test Range (AFWTR)
Object type
Payload
Rocket body
Debris
Shape & HBR
Trap Box + 2 Pan, 4.8 m
Radar Cross Section
10.154 m², Large (>1 m²)

Expand to show TLE details & history
Last TLE update: 7 hours ago

TLE from 7 hours ago
0 IRIDIUM 169
1 43926U 19002E   25288.55504077  .00000144  00000-0  40479-4 0  9991
2 43926  86.4201 127.4891 0003114  68.5898 291.5633 14.38610465355057
Epoch: 2025-10-15T13:19Z
TLE epoch observation values (Epoch: 2025-10-15T13:19:15.522Z)
Latitude
0.00005°
Longitude
-96.65301°
Altitude
765.334 km
Speed
7.472 km/s
True Right ascension
08h 29m 57s
True Declination
0° 00' 00"
Sunlit
Object was in daylight at epoch
Visualization orbit readout
Latitude
Unknown
Longitude
Unknown
Altitude
Unknown
Speed
Unknown
Apparent Right ascension
Unknown
Apparent Declination
Unknown
Sunlit
N/A
Visualization observer readout
Local Sidereal Time
15:23:00
Azimuth
Unknown
Elevation
Unknown
Doppler factor
Unknown
Orbital elements
Apogee altitude
762.274 km
Perigee altitude
757.828 km
Semi-major axis
7,138.188 km
Eccentricity
0.00031
Inclination
86.4201°
RAAN
127.4891°
Arg. of periapsis
68.5898°
True anomaly
291.53011°
Mean anomaly
291.5633°
Eccentric anomaly
291.5467°
Mean motion
3.59883 °/min
Orbital period
100.03 mins
BSTAR
0.000040479
Loading maneuver chart data...
Computing Atmospheric mass density...
Loading historical data...
Loading historical data...
Loading historical data...
Loading historical data...
Loading historical data...
Loading historical data...
Loading historical data...

Documentation

Showing up to 5 results
|